Zhoushuizi Airport
ZYTL : now visible

Airfield :











YOU CAN JOIN US ON...

 
LOGIN :

Register | Disclaimer

   EN    FR    IT 

 









Legend :    VFR   Marginal VFR   IFR   Intensive IFR   Very Intensive IFR
Visi :
Ceiling :
>= 8 km
>= 3000ft
5 to 8 km
1000 to 3000 ft
1500m to 5 km
500 to 1000 ft
800 to 1500m
200 to 500 ft
< 800m
< 200 ft
Symbols :   Thunderstorms  Fog  Heavy snow  Heavy precipitations  Wind > 20 kt






- Airport Elevation : 107 ft
- IATA code : DLC


ZYTL - Zhoushuizi

CURRENT METAR :
  • 150730Z 09007MPS CAVOK 08/01 Q1018 NOSIG

EXPIRED METARs :
  • 150700Z 10007MPS CAVOK 09/00 Q1018 NOSIG
  • 150630Z 09006MPS CAVOK 09/M00 Q1018 NOSIG
  • 150600Z 10006MPS CAVOK 09/M00 Q1018 NOSIG
  • 150530Z 10007MPS CAVOK 09/01 Q1018 NOSIG
  • 150500Z 09007MPS CAVOK 09/01 Q1018 NOSIG

TAF TAF ZYTL
Valid from the 15 at 06:00 until the 16 at 06:00 UTC


150306Z 1506/1606 10004G10MPS CAVOK TX11/1506Z TN03/1521Z



MET'MAP, your aeronautical weather chart ! - Copyright ORBIFLY December 2007 - Disclaimer

ORBIFLY MET'MAP TEAM :

Programming & Development : Alexandra Zaïnal
Concept & Development : Baudouin d'Aumeries
Co-Development & Prog : Marc-Olivier Méhu
Technical & hardware support : Manuel Goepfert

Contact : metmap@orbifly.com




SOURCES & CREDITS :

   NOAA       Earth
Advisory